QPF
0.00 0.01 0.02 0.00 0.00 0.01 0.00 0.00 0.00 0.00 0.01 0.03 0.02 0.01 0.01 0.06 0.05 0.01 0.00 0.00 0.00 0.00 0.00 0.00 0.00 0.00 0.00 0.00 0.00 0.00 0.00 0.00 0.00 0.00 0.00 0.00 0.00 0.00 0.00 0.00 0.00 0.01 0.01 0.00 0.00 0.00 0.00 0.00 0.00
0.02 0.06 0.07 0.00 0.00 0.00 0.00 0.00 0.00 0.00 0.00 0.01 0.01 0.01 0.01 0.01 0.01 0.01 0.00 0.00 0.00 0.00 0.00 0.01 0.01 0.00 0.00 0.00 0.00 0.00 0.00 0.00 0.00 0.00 0.00 0.00 0.00 0.00 0.00 0.00 0.00 0.00 0.00 0.00 0.00 0.00 0.00 0.00 0.00
0.07 0.12 0.06 0.00 0.00 0.00 0.00 0.00 0.00 0.00 0.00 0.00 0.00 0.00 0.00 0.00 0.00 0.00 0.00 0.00 0.00 0.00 0.01 0.07 0.03 0.00 0.00 0.00 0.00 0.00 0.00 0.00 0.00 0.00 0.00 0.00 0.00 0.00 0.00 0.00 0.00 0.00 0.00 0.01 0.00 0.00 0.00 0.00 0.00
0.19 0.15 0.04 0.02 0.01 0.00 0.00 0.00 0.00 0.00 0.00 0.00 0.00 0.00 0.00 0.00 0.00 0.00 0.00 0.00 0.00 0.00 0.02 0.09 0.03 0.01 0.00 0.00 0.00 0.00 0.00 0.00 0.00 0.00 0.00 0.00 0.00 0.00 0.00 0.00 0.00 0.00 0.00 0.00 0.00 0.00 0.00 0.00 0.00
0.06 0.02 0.00 0.00 0.00 0.00 0.00 0.00 0.00 0.00 0.00 0.00 0.00 0.00 0.00 0.00 0.00 0.01 0.00 0.00 0.00 0.00 0.01 0.04 0.04 0.04 0.06 0.00 0.00 0.00 0.00 0.00 0.00 0.00 0.00 0.00 0.00 0.00 0.00 0.00 0.00 0.00 0.00 0.00 0.00 0.00 0.00 0.00 0.00
0.09 0.01 0.00 0.00 0.00 0.00 0.00 0.00 0.00 0.00 0.00 0.00 0.00 0.00 0.02 0.02 0.02 0.02 0.00 0.00 0.00 0.00 0.00 0.00 0.01 0.01 0.04 0.01 0.00 0.00 0.00 0.00 0.00 0.00 0.00 0.00 0.00 0.00 0.00 0.00 0.00 0.00 0.00 0.00 0.00 0.00 0.00 0.00 0.00
0.07 0.04 0.00 0.00 0.00 0.00 0.00 0.00 0.00 0.00 0.00 0.00 0.00 0.00 0.01 0.03 0.01 0.00 0.00 0.00 0.00 0.00 0.00 0.00 0.00 0.00 0.02 0.07 0.05 0.07 0.06 0.00 0.00 0.00 0.00 0.00 0.00 0.00 0.00 0.01 0.00 0.00 0.00 0.00 0.00 0.00 0.00 0.00 0.00
0.05 0.11 0.02 0.00 0.00 0.01 0.00 0.00 0.00 0.00 0.00 0.00 0.00 0.00 0.00 0.00 0.00 0.00 0.00 0.00 0.00 0.00 0.00 0.00 0.00 0.00 0.00 0.01 0.07 0.05 0.02 0.00 0.00 0.00 0.00 0.00 0.00 0.00 0.00 0.01 0.00 0.00 0.00 0.00 0.00 0.00 0.00 0.00 0.00
0.02 0.13 0.03 0.00 0.01 0.01 0.00 0.00 0.00 0.00 0.00 0.00 0.00 0.00 0.00 0.00 0.00 0.00 0.00 0.00 0.00 0.00 0.00 0.00 0.00 0.00 0.00 0.04 0.10 0.00 0.00 0.00 0.00 0.00 0.00 0.00 0.00 0.00 0.00 0.00 0.00 0.00 0.00 0.00 0.00 0.00 0.00 0.00 0.00
0.02 0.17 0.06 0.00 0.00 0.00 0.00 0.00 0.00 0.00 0.00 0.00 0.00 0.00 0.00 0.00 0.00 0.00 0.00 0.00 0.00 0.00 0.00 0.00 0.00 0.00 0.00 0.02 0.01 0.00 0.00 0.00 0.00 0.00 0.00 0.00 0.00 0.00 0.00 0.00 0.00 0.00 0.00 0.00 0.00 0.00 0.00 0.00 0.01
0.01 0.13 0.05 0.01 0.00 0.00 0.00 0.00 0.00 0.00 0.00 0.00 0.00 0.00 0.00 0.00 0.00 0.00 0.00 0.00 0.00 0.00 0.00 0.00 0.00 0.00 0.00 0.00 0.00 0.00 0.00 0.00 0.00 0.00 0.00 0.00 0.00 0.00 0.00 0.00 0.00 0.00 0.00 0.00 0.00 0.00 0.00 0.00 0.01
0.07 0.11 0.03 0.04 0.00 0.02 0.05 0.00 0.00 0.00 0.00 0.00 0.00 0.00 0.00 0.00 0.00 0.00 0.00 0.00 0.00 0.00 0.00 0.00 0.00 0.00 0.00 0.00 0.00 0.00 0.00 0.00 0.00 0.00 0.00 0.00 0.00 0.00 0.00 0.00 0.00 0.00 0.00 0.00 0.00 0.00 0.01 0.01 0.03
0.11 0.20 0.07 0.10 0.09 0.08 0.01 0.00 0.00 0.00 0.00 0.00 0.00 0.00 0.00 0.00 0.00 0.00 0.00 0.00 0.00 0.00 0.00 0.00 0.00 0.00 0.00 0.00 0.00 0.00 0.00 0.00 0.00 0.00 0.00 0.01 0.00 0.00 0.00 0.00 0.00 0.00 0.00 0.00 0.00 0.01 0.03 0.04 0.08
0.06 0.09 0.05 0.02 0.03 0.03 0.00 0.00 0.00 0.00 0.00 0.00 0.00 0.00 0.00 0.00 0.00 0.00 0.00 0.00 0.00 0.00 0.00 0.00 0.00 0.00 0.00 0.00 0.00 0.00 0.00 0.00 0.00 0.00 0.00 0.02 0.00 0.00 0.00 0.00 0.00 0.00 0.01 0.01 0.02 0.02 0.03 0.03 0.07
0.02 0.01 0.00 0.01 0.01 0.01 0.00 0.01 0.00 0.00 0.00 0.00 0.00 0.00 0.00 0.00 0.00 0.00 0.00 0.00 0.00 0.00 0.00 0.00 0.00 0.00 0.00 0.00 0.00 0.00 0.00 0.00 0.00 0.00 0.00 0.00 0.00 0.00 0.00 0.00 0.00 0.00 0.01 0.00 0.01 0.03 0.04 0.02 0.07
0.00 0.00 0.00 0.00 0.01 0.00 0.00 0.00 0.00 0.00 0.00 0.00 0.00 0.00 0.00 0.00 0.00 0.00 0.00 0.00 0.00 0.00 0.00 0.00 0.00 0.00 0.00 0.00 0.00 0.00 0.00 0.00 0.00 0.00 0.00 0.00 0.00 0.00 0.00 0.00 0.00 0.00 0.00 0.00 0.02 0.01 0.03 0.01 0.05
0.00 0.00 0.00 0.00 0.00 0.01 0.04 0.00 0.00 0.01 0.00 0.00 0.00 0.00 0.00 0.02 0.00 0.00 0.00 0.00 0.00 0.00 0.00 0.00 0.00 0.00 0.00 0.00 0.00 0.02 0.02 0.01 0.00 0.00 0.00 0.00 0.00 0.00 0.00 0.00 0.00 0.00 0.02 0.03 0.00 0.01 0.00 0.00 0.02
0.00 0.00 0.00 0.02 0.00 0.05 0.07 0.01 0.00 0.00 0.03 0.01 0.00 0.00 0.00 0.02 0.01 0.00 0.00 0.00 0.00 0.00 0.01 0.00 0.00 0.00 0.00 0.00 0.00 0.00 0.00 0.01 0.01 0.00 0.00 0.00 0.00 0.00 0.00 0.00 0.00 0.00 0.00 0.00 0.00 0.00 0.00 0.00 0.00
0.00 0.01 0.02 0.02 0.00 0.03 0.03 0.00 0.00 0.00 0.01 0.01 0.00 0.00 0.00 0.00 0.00 0.00 0.00 0.00 0.00 0.00 0.00 0.00 0.00 0.00 0.00 0.00 0.00 0.00 0.00 0.00 0.00 0.00 0.00 0.00 0.00 0.00 0.00 0.00 0.00 0.00 0.00 0.00 0.00 0.00 0.00 0.00 0.00
0.00 0.00 0.00 0.02 0.03 0.05 0.03 0.01 0.00 0.00 0.00 0.00 0.00 0.00 0.00 0.00 0.00 0.00 0.00 0.00 0.00 0.00 0.00 0.00 0.00 0.00 0.00 0.00 0.00 0.00 0.00 0.00 0.00 0.00 0.00 0.00 0.00 0.00 0.00 0.00 0.00 0.00 0.00 0.00 0.00 0.00 0.00 0.00 0.01
0.00 0.00 0.01 0.00 0.04 0.03 0.00 0.00 0.01 0.02 0.01 0.01 0.00 0.00 0.00 0.01 0.00 0.01 0.00 0.00 0.00 0.00 0.00 0.00 0.00 0.00 0.00 0.00 0.00 0.00 0.00 0.00 0.00 0.00 0.00 0.00 0.00 0.00 0.00 0.00 0.00 0.00 0.00 0.00 0.00 0.00 0.01 0.02 0.01
0.00 0.00 0.00 0.00 0.01 0.00 0.00 0.00 0.00 0.01 0.01 0.00 0.00 0.00 0.00 0.00 0.00 0.00 0.00 0.00 0.00 0.00 0.00 0.00 0.00 0.00 0.00 0.00 0.00 0.00 0.00 0.00 0.00 0.00 0.00 0.00 0.00 0.00 0.00 0.00 0.00 0.00 0.00 0.00 0.00 0.00 0.02 0.06 0.01
0.00 0.00 0.00 0.01 0.06 0.00 0.00 0.00 0.00 0.00 0.00 0.00 0.00 0.00 0.00 0.00 0.00 0.00 0.00 0.00 0.00 0.03 0.01 0.00 0.00 0.00 0.00 0.00 0.00 0.00 0.00 0.01 0.00 0.00 0.00 0.00 0.00 0.00 0.00 0.00 0.00 0.00 0.00 0.00 0.00 0.02 0.04 0.04 0.01
0.00 0.00 0.00 0.05 0.07 0.00 0.00 0.00 0.00 0.00 0.00 0.00 0.00 0.00 0.00 0.00 0.00 0.00 0.00 0.00 0.00 0.00 0.00 0.03 0.00 0.00 0.00 0.00 0.00 0.00 0.00 0.00 0.00 0.00 0.00 0.02 0.01 0.00 0.00 0.00 0.00 0.00 0.00 0.00 0.00 0.05 0.03 0.04 0.03
0.00 0.00 0.00 0.02 0.01 0.01 0.00 0.00 0.00 0.00 0.00 0.00 0.00 0.00 0.00 0.00 0.00 0.00 0.00 0.00 0.00 0.00 0.00 0.01 0.01 0.00 0.00 0.00 0.00 0.02 0.00 0.00 0.00 0.00 0.01 0.01 0.00 0.00 0.00 0.00 0.00 0.00 0.00 0.00 0.00 0.00 0.01 0.01 0.01
0.00 0.00 0.00 0.00 0.01 0.02 0.00 0.00 0.00 0.00 0.00 0.00 0.00 0.00 0.00 0.00 0.00 0.00 0.03 0.04 0.02 0.00 0.00 0.05 0.05 0.01 0.00 0.00 0.00 0.01 0.03 0.01 0.01 0.00 0.00 0.00 0.00 0.00 0.00 0.01 0.00 0.00 0.00 0.00 0.02 0.01 0.00 0.00 0.00
0.00 0.00 0.00 0.00 0.00 0.00 0.01 0.00 0.00 0.00 0.00 0.00 0.00 0.00 0.00 0.00 0.00 0.02 0.03 0.03 0.04 0.01 0.01 0.04 0.11 0.07 0.01 0.00 0.00 0.00 0.01 0.01 0.02 0.00 0.00 0.01 0.01 0.01 0.01 0.00 0.01 0.00 0.01 0.00 0.00 0.02 0.00 0.00 0.00
0.00 0.00 0.00 0.00 0.00 0.01 0.01 0.00 0.00 0.00 0.00 0.00 0.00 0.00 0.00 0.00 0.00 0.00 0.01 0.04 0.01 0.01 0.02 0.10 0.22 0.15 0.08 0.06 0.00 0.00 0.01 0.02 0.00 0.00 0.02 0.02 0.03 0.00 0.00 0.00 0.00 0.00 0.00 0.00 0.00 0.00 0.00 0.00 0.00
0.00 0.00 0.00 0.00 0.00 0.00 0.01 0.00 0.00 0.00 0.00 0.00 0.00 0.00 0.00 0.00 0.00 0.00 0.00 0.03 0.06 0.02 0.02 0.02 0.07 0.26 0.37 0.26 0.17 0.07 0.01 0.01 0.02 0.03 0.02 0.02 0.01 0.00 0.00 0.00 0.00 0.00 0.00 0.00 0.00 0.00 0.00 0.00 0.00
0.00 0.00 0.00 0.00 0.01 0.00 0.00 0.00 0.00 0.02 0.01 0.00 0.00 0.00 0.00 0.00 0.00 0.00 0.00 0.02 0.04 0.03 0.01 0.01 0.01 0.05 0.24 0.27 0.10 0.08 0.09 0.04 0.01 0.02 0.07 0.03 0.00 0.01 0.02 0.02 0.00 0.00 0.00 0.00 0.01 0.00 0.00 0.00 0.00
MSLP
1011.34 1011.48 1011.70 1012.01 1012.50 1011.87 1011.08 1010.55 1009.83 1009.20 1009.35 1009.75 1009.75 1010.34 1011.79 1012.78 1013.38 1014.48 1014.42 1014.80 1015.04 1015.21 1014.95 1014.89 1015.07 1015.18 1015.28 1015.42 1015.55 1015.50 1015.57 1015.60 1015.67 1015.76 1015.81 1015.96 1016.01 1016.15 1016.26 1016.40 1016.51 1016.88 1017.18 1017.13 1017.18 1017.35 1017.43 1017.55 1017.73
1011.58 1011.67 1011.98 1012.17 1012.27 1011.68 1010.55 1009.54 1009.20 1009.12 1009.57 1009.76 1010.40 1011.05 1011.83 1013.35 1013.81 1014.46 1014.87 1015.05 1014.85 1015.04 1014.99 1015.14 1015.11 1015.29 1015.40 1015.53 1015.65 1015.58 1015.73 1015.75 1015.82 1015.88 1015.90 1016.10 1016.08 1016.24 1016.33 1016.67 1016.88 1017.02 1017.29 1017.40 1017.37 1017.45 1017.58 1017.92 1018.23
1011.64 1011.83 1012.59 1013.02 1012.74 1011.61 1010.19 1009.24 1008.77 1009.04 1009.59 1009.53 1010.64 1011.41 1012.35 1013.74 1014.15 1014.46 1014.50 1015.00 1015.10 1015.21 1015.11 1014.99 1015.23 1015.28 1015.48 1015.62 1015.70 1015.76 1015.82 1015.95 1016.02 1016.03 1016.10 1016.18 1016.38 1016.43 1016.37 1016.77 1017.09 1017.10 1017.29 1017.38 1017.42 1017.49 1017.68 1017.91 1018.03
1012.13 1012.84 1013.44 1013.70 1013.07 1011.26 1009.92 1008.95 1008.87 1009.34 1009.81 1010.41 1011.05 1012.17 1013.02 1013.43 1013.91 1014.33 1014.73 1014.76 1015.22 1015.29 1015.19 1015.12 1015.23 1015.30 1015.49 1015.63 1015.77 1015.93 1016.00 1016.12 1016.20 1016.23 1016.28 1016.37 1016.42 1016.76 1016.44 1016.84 1017.16 1017.42 1017.44 1017.53 1017.69 1017.88 1017.97 1018.09 1018.27
1012.80 1013.67 1014.65 1014.63 1013.25 1011.42 1010.43 1008.93 1009.04 1009.73 1010.52 1011.22 1011.39 1013.17 1013.73 1014.07 1014.04 1014.49 1014.86 1015.11 1015.30 1015.53 1015.42 1015.45 1015.35 1015.36 1015.56 1015.74 1015.88 1016.05 1016.19 1016.28 1016.38 1016.42 1016.51 1016.52 1016.70 1016.76 1016.69 1016.77 1017.36 1017.46 1017.58 1017.80 1017.92 1017.93 1017.94 1017.91 1017.74
1013.98 1015.46 1015.66 1014.90 1013.30 1011.63 1010.01 1009.10 1009.39 1010.39 1011.09 1011.76 1012.44 1013.32 1014.52 1014.54 1014.61 1015.01 1015.16 1015.38 1015.47 1015.70 1015.73 1015.50 1015.60 1015.63 1015.71 1015.85 1016.06 1016.26 1016.43 1016.54 1016.60 1016.74 1016.89 1016.89 1016.88 1016.88 1016.90 1017.09 1017.42 1017.69 1017.88 1018.03 1018.09 1018.09 1018.10 1017.74 1017.90
1014.82 1016.01 1015.78 1014.63 1013.17 1011.59 1009.76 1008.94 1009.35 1010.36 1010.87 1011.67 1012.37 1013.72 1014.85 1014.89 1014.97 1015.15 1015.49 1015.73 1015.74 1015.97 1016.07 1015.95 1015.92 1015.84 1015.84 1016.07 1016.21 1016.36 1016.41 1016.65 1016.78 1016.96 1017.06 1016.93 1016.98 1017.19 1017.03 1017.31 1017.64 1017.87 1017.87 1017.98 1017.98 1017.96 1017.87 1017.86 1018.24
1014.11 1014.43 1015.90 1014.71 1013.22 1011.40 1009.83 1008.75 1009.11 1009.48 1011.02 1011.70 1011.98 1013.55 1014.64 1014.96 1015.16 1015.43 1015.83 1016.05 1016.19 1016.23 1016.16 1016.28 1016.33 1016.28 1016.27 1016.39 1016.31 1016.46 1016.56 1016.83 1017.00 1017.03 1017.02 1016.98 1017.25 1017.07 1017.12 1017.53 1017.72 1017.84 1017.86 1017.84 1017.89 1017.93 1017.96 1018.28 1018.34
1013.90 1014.57 1014.99 1014.11 1012.81 1011.32 1010.02 1009.25 1009.20 1009.63 1010.98 1011.54 1011.83 1012.82 1013.87 1014.74 1015.25 1015.74 1016.21 1016.50 1016.65 1016.59 1016.56 1016.49 1016.50 1016.55 1016.57 1016.68 1016.66 1016.67 1016.85 1017.02 1017.25 1017.24 1017.15 1017.36 1017.35 1017.21 1017.45 1017.67 1017.80 1017.95 1018.02 1017.97 1017.85 1017.88 1017.81 1017.93 1018.32
1013.70 1013.98 1013.74 1012.72 1011.92 1011.59 1010.18 1010.30 1009.29 1010.26 1011.43 1012.20 1012.75 1013.64 1014.36 1015.01 1015.39 1015.78 1016.33 1016.68 1016.88 1016.93 1016.85 1016.70 1016.70 1016.74 1016.83 1016.81 1016.78 1017.05 1017.15 1017.45 1017.42 1017.37 1017.46 1017.47 1017.41 1017.80 1017.62 1017.90 1018.04 1018.15 1018.14 1018.01 1017.73 1017.85 1017.76 1017.55 1018.48
1013.55 1013.60 1013.31 1012.67 1012.53 1012.10 1011.32 1010.34 1008.99 1010.21 1011.83 1011.64 1012.51 1013.56 1014.21 1015.02 1015.62 1015.99 1016.24 1016.45 1016.67 1016.80 1016.83 1016.82 1016.74 1016.90 1016.97 1016.94 1017.01 1017.32 1017.38 1017.37 1017.29 1017.38 1017.45 1017.52 1017.69 1017.85 1017.90 1018.12 1018.18 1018.08 1018.12 1017.95 1017.92 1017.99 1017.72 1017.39 1017.75
1012.87 1012.88 1013.08 1012.97 1012.62 1012.49 1011.92 1011.14 1010.52 1009.75 1011.07 1011.64 1012.11 1012.96 1013.90 1014.86 1015.47 1015.70 1016.11 1016.46 1016.68 1016.80 1016.81 1016.77 1016.86 1016.96 1017.13 1017.05 1017.23 1017.46 1017.36 1017.32 1017.35 1017.44 1017.47 1017.73 1017.70 1017.68 1017.68 1017.96 1018.13 1018.16 1017.99 1017.90 1017.81 1017.91 1018.05 1017.59 1017.73
1011.69 1012.84 1013.01 1013.16 1013.02 1012.54 1012.22 1011.06 1010.72 1010.52 1010.94 1011.80 1012.24 1012.91 1013.66 1014.36 1015.06 1015.41 1015.74 1016.25 1016.55 1016.73 1016.74 1016.87 1016.90 1017.10 1017.02 1016.98 1017.28 1017.33 1017.18 1017.38 1017.43 1017.40 1017.39 1017.44 1017.43 1017.56 1017.80 1017.87 1018.15 1018.12 1017.84 1017.88 1018.22 1018.39 1017.93 1017.74 1018.06
1011.69 1012.43 1012.79 1013.14 1012.82 1012.69 1012.11 1011.11 1010.25 1010.80 1010.93 1011.80 1012.23 1013.03 1013.49 1013.86 1014.31 1015.08 1015.86 1016.15 1016.48 1016.63 1016.70 1016.68 1016.90 1016.99 1017.06 1016.93 1017.25 1017.06 1017.24 1017.40 1017.27 1017.55 1017.15 1017.05 1017.37 1017.73 1017.60 1017.68 1017.87 1018.03 1017.97 1018.18 1018.52 1018.27 1017.78 1017.58 1018.47
1011.94 1012.74 1012.88 1013.18 1013.28 1013.16 1012.33 1011.64 1011.63 1011.55 1011.29 1011.60 1012.16 1012.61 1013.31 1013.62 1014.16 1014.44 1014.82 1015.32 1015.77 1016.26 1016.30 1016.49 1016.76 1016.99 1017.08 1017.14 1017.23 1017.18 1017.20 1017.02 1017.02 1017.25 1017.24 1017.04 1017.17 1017.46 1017.72 1017.81 1017.76 1018.01 1017.89 1017.68 1018.13 1017.92 1017.72 1016.93 1017.24
1012.35 1012.69 1013.07 1013.37 1013.06 1013.07 1012.48 1012.73 1011.73 1011.52 1011.50 1011.77 1012.10 1012.76 1013.32 1013.53 1013.63 1014.09 1014.52 1015.00 1015.53 1015.93 1016.26 1016.29 1016.45 1016.89 1017.21 1017.07 1017.03 1017.20 1016.99 1016.87 1016.78 1017.00 1017.41 1017.37 1016.93 1017.23 1017.65 1017.57 1017.79 1017.78 1017.17 1017.56 1017.68 1018.11 1017.97 1017.59 1017.62
1012.72 1012.85 1012.99 1013.07 1012.70 1012.62 1012.97 1012.80 1011.67 1011.61 1011.93 1011.58 1012.24 1012.72 1013.25 1013.60 1013.66 1013.95 1014.15 1014.49 1014.98 1015.26 1015.80 1016.14 1016.36 1016.36 1016.55 1016.82 1016.89 1017.33 1016.91 1016.71 1016.66 1016.62 1017.22 1017.12 1016.85 1017.09 1017.47 1017.33 1017.35 1017.46 1016.89 1017.37 1017.35 1018.00 1017.93 1017.73 1017.85
1012.40 1012.70 1012.47 1012.43 1012.64 1012.68 1012.83 1012.34 1011.55 1011.53 1012.10 1012.01 1012.12 1012.61 1013.01 1013.23 1013.14 1013.34 1013.54 1014.06 1014.51 1015.02 1015.35 1015.72 1015.97 1016.10 1016.43 1016.75 1016.98 1017.54 1017.13 1016.88 1016.72 1016.68 1016.93 1017.11 1016.97 1016.87 1016.81 1017.13 1017.46 1017.57 1017.26 1017.41 1017.18 1017.49 1017.33 1017.55 1017.63
1011.21 1011.34 1011.65 1011.73 1011.53 1011.92 1012.10 1011.84 1011.17 1011.11 1011.61 1012.02 1012.26 1012.49 1012.88 1013.11 1012.85 1012.94 1013.07 1013.30 1013.91 1014.35 1014.94 1015.42 1015.68 1015.92 1016.43 1017.05 1017.36 1017.53 1017.54 1017.13 1016.81 1016.53 1016.48 1017.05 1017.25 1017.46 1017.19 1017.14 1017.14 1017.51 1017.38 1017.19 1017.28 1017.50 1017.55 1017.83 1017.89
1010.50 1010.58 1010.97 1011.48 1011.29 1011.92 1011.88 1011.57 1011.20 1011.05 1011.09 1011.31 1011.72 1011.84 1012.22 1012.44 1012.80 1012.83 1012.94 1012.94 1013.52 1013.86 1014.68 1015.11 1015.36 1015.78 1016.20 1016.59 1016.86 1016.90 1017.18 1016.91 1016.80 1016.55 1016.51 1016.68 1016.74 1016.99 1017.04 1017.07 1017.37 1017.29 1017.33 1017.32 1017.32 1017.63 1017.79 1017.73 1017.81
1009.44 1009.77 1010.00 1010.48 1011.37 1012.17 1012.40 1012.36 1011.73 1011.21 1010.64 1010.69 1010.86 1011.24 1011.52 1011.63 1012.02 1012.52 1012.77 1012.72 1013.25 1013.77 1014.23 1014.71 1014.99 1015.46 1015.78 1016.12 1016.53 1016.85 1017.06 1017.17 1017.18 1017.11 1016.94 1016.57 1016.69 1016.80 1016.83 1017.02 1017.27 1017.35 1017.52 1017.46 1017.40 1017.55 1017.91 1017.87 1017.71
1008.67 1008.40 1009.20 1010.08 1011.63 1012.22 1012.31 1012.27 1011.44 1010.80 1010.24 1010.12 1010.28 1010.58 1010.94 1011.42 1011.70 1011.98 1012.33 1012.72 1012.96 1013.43 1013.90 1014.31 1014.72 1015.27 1015.62 1015.98 1016.45 1016.85 1017.07 1017.36 1017.39 1017.12 1017.11 1016.88 1016.72 1016.75 1016.88 1016.92 1017.05 1017.24 1017.50 1017.43 1017.51 1017.57 1017.74 1017.79 1017.91
1006.39 1006.69 1007.94 1009.59 1011.32 1012.38 1012.90 1012.87 1010.71 1010.60 1010.39 1009.90 1009.76 1010.10 1010.38 1010.79 1011.06 1011.53 1012.18 1012.23 1012.72 1013.22 1013.72 1014.31 1014.78 1015.15 1015.41 1015.87 1016.32 1016.90 1017.33 1017.49 1017.28 1017.30 1017.15 1017.00 1016.88 1016.63 1016.63 1016.77 1016.88 1017.20 1017.36 1017.37 1017.43 1017.57 1017.88 1017.79 1017.87
1004.60 1005.74 1008.07 1010.31 1011.92 1012.76 1012.28 1012.29 1009.52 1009.52 1008.67 1008.72 1009.15 1009.48 1009.90 1010.57 1010.95 1011.25 1011.65 1011.90 1012.60 1013.08 1013.47 1014.03 1014.70 1015.14 1015.19 1015.65 1016.22 1016.75 1017.09 1017.44 1017.46 1017.35 1017.17 1016.95 1016.96 1016.81 1016.39 1016.42 1016.69 1016.81 1017.22 1017.41 1017.20 1017.25 1017.38 1017.73 1017.88
1004.08 1005.94 1008.23 1010.89 1011.64 1011.97 1011.30 1011.65 1009.19 1007.46 1007.53 1007.34 1008.37 1008.83 1009.48 1010.16 1010.69 1011.28 1011.41 1011.95 1012.68 1013.15 1013.26 1013.82 1014.38 1014.74 1014.98 1015.28 1015.84 1016.35 1016.81 1017.09 1016.99 1017.07 1017.07 1017.02 1016.94 1017.01 1016.72 1016.64 1016.88 1017.05 1017.14 1017.13 1016.91 1017.17 1017.34 1017.49 1017.57
1004.21 1005.64 1007.29 1009.21 1010.76 1011.07 1011.16 1010.21 1007.71 1005.95 1006.00 1006.95 1007.74 1008.17 1009.03 1009.65 1010.30 1010.90 1011.21 1012.29 1012.27 1012.76 1013.00 1013.48 1013.81 1014.33 1014.58 1014.89 1015.16 1015.71 1016.27 1016.82 1016.94 1016.59 1016.56 1016.66 1016.79 1016.69 1016.49 1016.72 1016.65 1016.66 1016.75 1016.83 1016.91 1017.04 1017.13 1017.17 1017.18
1003.59 1004.80 1005.63 1007.62 1009.68 1010.72 1010.82 1008.97 1007.20 1006.25 1006.46 1007.06 1007.71 1008.18 1008.59 1009.01 1009.75 1010.61 1011.41 1011.64 1012.02 1012.05 1012.56 1013.17 1013.58 1013.93 1014.05 1014.37 1014.89 1015.07 1015.51 1016.14 1016.60 1016.55 1016.45 1016.44 1016.48 1016.36 1016.43 1016.34 1016.79 1016.70 1016.60 1016.68 1017.06 1017.17 1016.97 1016.94 1017.08
1002.72 1003.83 1005.63 1007.77 1009.55 1010.95 1010.65 1009.45 1008.20 1007.12 1006.69 1006.90 1007.33 1007.70 1008.24 1008.71 1009.49 1010.04 1010.50 1011.14 1011.65 1011.64 1012.04 1012.28 1012.85 1013.35 1013.73 1014.24 1014.64 1015.13 1014.87 1015.28 1015.69 1015.95 1016.22 1016.28 1016.47 1016.45 1016.44 1016.25 1016.22 1016.35 1016.53 1016.63 1016.95 1017.01 1016.84 1016.81 1016.84
1002.91 1003.78 1005.58 1007.48 1008.73 1010.35 1010.70 1009.28 1006.37 1006.09 1005.99 1006.50 1006.96 1007.69 1007.95 1008.53 1009.10 1009.90 1010.62 1011.33 1011.34 1011.70 1012.22 1012.68 1013.07 1013.02 1013.42 1014.24 1014.86 1015.07 1014.96 1014.78 1015.22 1015.42 1015.44 1015.78 1016.11 1016.22 1016.36 1016.11 1016.12 1016.18 1016.35 1016.33 1016.65 1016.74 1016.64 1016.69 1016.66
1002.42 1003.39 1005.00 1007.45 1008.86 1009.52 1009.27 1007.73 1005.98 1005.63 1005.98 1006.61 1007.05 1007.43 1007.66 1008.56 1009.18 1009.78 1010.47 1011.44 1011.81 1012.25 1012.72 1012.81 1012.60 1012.75 1013.15 1014.08 1014.56 1015.04 1014.77 1014.73 1014.44 1014.80 1015.04 1015.38 1015.83 1015.92 1015.95 1016.13 1016.02 1016.11 1016.16 1016.14 1016.33 1016.44 1016.29 1016.54 1016.66
Thickness
5790 5789 5786 5775 5751 5748 5748 5752 5770 5770 5771 5778 5784 5772 5755 5753 5748 5734 5761 5762 5761 5760 5763 5764 5765 5766 5766 5766 5766 5768 5769 5769 5768 5768 5768 5768 5768 5767 5766 5765 5763 5758 5753 5756 5756 5753 5751 5751 5749
5788 5787 5779 5763 5742 5735 5746 5771 5764 5775 5778 5781 5776 5769 5759 5742 5756 5753 5753 5758 5760 5758 5758 5761 5763 5764 5765 5766 5766 5767 5766 5768 5768 5767 5767 5766 5767 5766 5765 5762 5760 5757 5755 5755 5756 5755 5752 5749 5744
5788 5785 5759 5743 5737 5735 5741 5770 5773 5782 5784 5782 5768 5770 5758 5742 5754 5754 5760 5757 5755 5754 5756 5758 5760 5763 5764 5764 5765 5767 5766 5765 5765 5765 5764 5764 5764 5763 5762 5760 5759 5758 5757 5756 5756 5757 5755 5752 5749
5775 5766 5755 5733 5728 5753 5763 5775 5782 5775 5779 5780 5770 5749 5758 5762 5757 5758 5759 5757 5755 5753 5753 5755 5759 5762 5762 5763 5765 5765 5764 5763 5761 5761 5762 5760 5760 5758 5761 5759 5756 5757 5757 5754 5753 5752 5751 5749 5747
5769 5753 5723 5719 5729 5754 5765 5782 5783 5768 5765 5762 5766 5741 5741 5753 5760 5759 5756 5755 5753 5752 5751 5752 5757 5760 5761 5761 5762 5761 5761 5759 5759 5759 5758 5758 5756 5756 5759 5757 5756 5756 5755 5753 5753 5752 5753 5753 5753
5744 5734 5710 5709 5728 5751 5768 5783 5776 5764 5759 5757 5750 5743 5736 5752 5752 5752 5754 5752 5751 5750 5750 5751 5755 5757 5758 5759 5758 5757 5756 5756 5756 5754 5753 5755 5755 5753 5756 5756 5756 5754 5753 5751 5750 5750 5750 5754 5752
5736 5717 5713 5721 5730 5744 5769 5785 5772 5761 5759 5754 5758 5734 5735 5743 5749 5751 5749 5748 5748 5747 5747 5750 5753 5755 5756 5755 5755 5755 5756 5755 5755 5753 5751 5753 5752 5749 5753 5756 5754 5753 5755 5753 5752 5753 5754 5754 5747
5742 5726 5721 5726 5723 5738 5769 5783 5786 5775 5757 5767 5764 5734 5727 5741 5748 5747 5745 5744 5744 5745 5746 5747 5748 5751 5752 5752 5754 5754 5754 5752 5752 5751 5749 5748 5745 5750 5754 5754 5753 5754 5756 5757 5756 5755 5755 5750 5749
5753 5726 5716 5726 5733 5750 5773 5772 5787 5786 5761 5762 5767 5756 5752 5749 5747 5742 5739 5738 5738 5741 5744 5745 5745 5747 5749 5749 5750 5752 5751 5750 5749 5748 5746 5744 5748 5754 5753 5753 5754 5755 5756 5757 5760 5760 5762 5757 5752
5741 5718 5730 5751 5755 5749 5767 5761 5776 5766 5757 5752 5751 5752 5751 5746 5742 5739 5735 5733 5734 5735 5739 5742 5742 5743 5743 5745 5748 5748 5747 5747 5749 5747 5745 5750 5752 5749 5752 5754 5754 5755 5756 5758 5761 5759 5762 5761 5752
5742 5729 5740 5747 5750 5752 5756 5763 5782 5763 5743 5756 5747 5746 5748 5744 5739 5737 5736 5737 5736 5737 5739 5739 5739 5738 5739 5743 5745 5745 5745 5747 5749 5749 5750 5751 5750 5752 5754 5756 5760 5760 5758 5759 5761 5761 5765 5764 5758
5740 5748 5745 5748 5754 5750 5750 5762 5762 5768 5759 5767 5763 5757 5749 5741 5737 5738 5737 5735 5736 5736 5736 5736 5734 5734 5736 5740 5740 5739 5743 5743 5746 5749 5751 5751 5755 5759 5761 5763 5763 5762 5761 5765 5764 5765 5760 5761 5760
5758 5742 5747 5746 5745 5751 5754 5756 5759 5765 5770 5770 5764 5759 5752 5748 5743 5743 5742 5739 5738 5735 5735 5734 5733 5733 5736 5739 5738 5739 5743 5743 5745 5750 5754 5759 5761 5762 5763 5767 5764 5765 5768 5767 5764 5762 5763 5763 5762
5767 5755 5748 5744 5740 5747 5749 5758 5770 5768 5776 5765 5762 5756 5755 5753 5751 5746 5740 5739 5738 5738 5736 5739 5737 5734 5735 5739 5736 5743 5744 5743 5751 5752 5758 5762 5762 5762 5767 5769 5768 5770 5770 5771 5765 5763 5766 5767 5760
5766 5747 5746 5741 5742 5737 5753 5747 5748 5761 5772 5763 5761 5761 5755 5753 5752 5751 5750 5747 5744 5741 5743 5740 5738 5735 5737 5738 5740 5744 5746 5750 5755 5756 5759 5765 5766 5767 5767 5769 5768 5771 5773 5777 5769 5766 5768 5777 5771
5751 5748 5729 5735 5742 5744 5747 5715 5749 5767 5765 5758 5760 5758 5756 5755 5758 5757 5755 5752 5750 5745 5744 5744 5746 5743 5740 5741 5745 5746 5750 5755 5759 5760 5759 5763 5769 5767 5769 5770 5771 5772 5781 5777 5773 5769 5767 5774 5769
5739 5727 5728 5733 5749 5743 5736 5725 5753 5763 5756 5761 5756 5754 5752 5752 5756 5759 5760 5758 5755 5752 5749 5748 5748 5747 5747 5745 5747 5745 5753 5759 5762 5765 5764 5767 5772 5771 5769 5772 5775 5776 5783 5779 5779 5774 5768 5771 5768
5733 5729 5738 5734 5744 5741 5732 5736 5752 5761 5749 5751 5758 5757 5756 5756 5760 5765 5765 5763 5759 5756 5754 5754 5753 5752 5751 5748 5748 5747 5755 5760 5762 5767 5769 5768 5771 5774 5779 5777 5775 5775 5780 5781 5784 5777 5780 5774 5771
5753 5745 5741 5748 5759 5749 5741 5741 5756 5764 5756 5750 5752 5758 5756 5758 5766 5769 5769 5769 5767 5764 5758 5755 5754 5754 5750 5745 5746 5747 5751 5759 5765 5770 5773 5768 5769 5770 5776 5776 5776 5774 5779 5785 5783 5778 5778 5772 5771
5759 5751 5747 5752 5762 5745 5742 5744 5756 5761 5763 5762 5763 5763 5763 5763 5764 5769 5771 5771 5767 5767 5762 5757 5756 5754 5752 5752 5752 5755 5755 5761 5765 5768 5772 5773 5773 5772 5776 5777 5777 5779 5779 5782 5779 5776 5774 5776 5773
5758 5752 5757 5754 5754 5746 5739 5731 5743 5759 5768 5772 5772 5770 5770 5770 5769 5765 5767 5772 5771 5768 5764 5761 5760 5758 5756 5757 5756 5756 5757 5758 5760 5762 5767 5773 5774 5774 5777 5778 5776 5777 5777 5776 5779 5778 5771 5771 5773
5747 5774 5772 5757 5736 5719 5745 5719 5742 5755 5766 5770 5775 5772 5772 5770 5771 5770 5769 5768 5771 5772 5769 5765 5761 5759 5757 5757 5755 5754 5753 5750 5754 5760 5764 5769 5772 5774 5775 5778 5778 5776 5774 5777 5777 5777 5774 5774 5771
5770 5790 5775 5761 5733 5728 5727 5715 5747 5752 5750 5762 5771 5774 5773 5773 5776 5777 5771 5774 5775 5774 5771 5767 5762 5758 5758 5754 5753 5752 5749 5751 5756 5760 5763 5766 5771 5776 5778 5778 5779 5779 5777 5779 5779 5776 5772 5774 5774
5805 5793 5769 5742 5725 5707 5726 5724 5754 5751 5765 5770 5775 5776 5777 5773 5775 5776 5777 5777 5772 5774 5772 5770 5765 5757 5758 5756 5752 5751 5751 5750 5751 5757 5762 5768 5771 5775 5781 5782 5781 5781 5776 5775 5780 5781 5780 5774 5773
5801 5761 5724 5708 5703 5705 5740 5727 5750 5786 5786 5787 5775 5777 5777 5773 5775 5772 5775 5772 5768 5766 5771 5770 5768 5761 5759 5757 5754 5752 5751 5751 5756 5759 5762 5766 5770 5771 5777 5780 5779 5778 5776 5777 5780 5780 5778 5778 5778
5784 5761 5730 5710 5700 5715 5732 5724 5754 5803 5805 5796 5788 5785 5781 5775 5773 5774 5774 5765 5768 5768 5768 5766 5767 5763 5764 5759 5757 5755 5753 5751 5752 5761 5764 5766 5767 5772 5776 5777 5777 5779 5778 5777 5778 5780 5781 5783 5782
5783 5764 5782 5757 5737 5716 5718 5751 5782 5794 5791 5788 5782 5782 5781 5779 5779 5771 5769 5772 5767 5772 5769 5767 5766 5764 5767 5764 5756 5758 5756 5755 5753 5757 5763 5766 5769 5773 5773 5775 5774 5776 5777 5777 5775 5775 5780 5783 5782
5793 5797 5756 5739 5721 5701 5712 5724 5734 5768 5777 5780 5781 5779 5779 5779 5778 5777 5775 5771 5769 5774 5772 5774 5770 5766 5768 5765 5756 5750 5758 5759 5761 5761 5760 5763 5763 5767 5768 5773 5776 5777 5775 5775 5774 5774 5779 5780 5781
5779 5773 5766 5749 5734 5703 5691 5716 5773 5778 5784 5779 5779 5778 5780 5779 5776 5772 5769 5768 5772 5773 5769 5766 5765 5767 5766 5761 5755 5753 5752 5756 5757 5760 5764 5764 5762 5762 5765 5771 5772 5773 5774 5775 5773 5774 5777 5778 5779
5793 5781 5762 5727 5738 5724 5719 5722 5787 5793 5783 5780 5777 5778 5781 5775 5772 5769 5766 5762 5760 5758 5756 5759 5766 5766 5763 5758 5754 5753 5756 5759 5762 5760 5762 5763 5761 5762 5765 5766 5768 5769 5771 5773 5771 5773 5777 5774 5774